When you browse on this site, cookies collect data to enhance your experience and personalize the content and advertising you see.
Visit our Privacy Policy to learn more. By continuing to use the site, you agree to this use of cookies and data.
  • In Netherlands
  • List of Countries
  • For 7 days
  • Water Temperature
  • Satellite Maps
  • Weather Map
  • Weather Widgets
  • user-avatar
    Login

    Hourly Weather Kurchi

    Today, 16 November, Friday

    Time Temperature Precipitation Wind Pressure Humidity
    00:00 +1°C° 0 mm 1 mps 760 mmHg 94%
    01:00 +1°C° 0 mm 1 mps 761 mmHg 94%
    02:00 0°C° 0 mm 1 mps 761 mmHg 92%
    03:00 -1°C° 0 mm 1 mps 761 mmHg 92%
    04:00 -1°C° 0 mm 1 mps 762 mmHg 91%
    05:00 -1°C° 0 mm 1 mps 762 mmHg 90%
    06:00 -4°C° 0 mm 2 mps 762 mmHg 88%
    07:00 -4°C° 0 mm 2 mps 762 mmHg 87%
    08:00 -5°C° 0 mm 2 mps 763 mmHg 85%
    09:00 -4°C° 0 mm 2 mps 763 mmHg 80%
    10:00 -1°C° 0 mm 1 mps 763 mmHg 76%
    11:00 0°C° 0 mm 1 mps 764 mmHg 72%
    12:00 +1°C° 0 mm 1 mps 764 mmHg 73%
    13:00 +1°C° 0 mm 1 mps 764 mmHg 74%
    14:00 +1°C° 0 mm 1 mps 764 mmHg 74%
    15:00 0°C° 0 mm 1 mps 764 mmHg 75%
    16:00 -1°C° 0 mm 1 mps 764 mmHg 77%
    17:00 -4°C° 0 mm 2 mps 764 mmHg 78%
    18:00 -4°C° 0 mm 2 mps 764 mmHg 77%
    19:00 -4°C° 0 mm 2 mps 764 mmHg 75%
    20:00 -3°C° 0 mm 1 mps 764 mmHg 74%
    21:00 -3°C° 0 mm 1 mps 764 mmHg 72%
    22:00 -3°C° 0 mm 1 mps 764 mmHg 70%
    23:00 -3°C° 0 mm 1 mps 764 mmHg 69%

    Tomorrow, 17 November, Saturday

    Time Temperature Precipitation Wind Pressure Humidity
    00:00 -3°C° 0 mm 1 mps 764 mmHg 67%
    01:00 -3°C° 0 mm 1 mps 764 mmHg 65%
    02:00 -3°C° 0 mm 1 mps 764 mmHg 63%
    03:00 -3°C° 0 mm 1 mps 764 mmHg 61%
    04:00 -4°C° 0 mm 0 mps 764 mmHg 60%
    05:00 -4°C° 0 mm 0 mps 763 mmHg 58%
    06:00 -4°C° 0 mm 0 mps 763 mmHg 58%
    07:00 -4°C° 0 mm 0 mps 763 mmHg 57%
    08:00 -4°C° 0 mm 0 mps 763 mmHg 56%
    09:00 -3°C° 0 mm 0 mps 763 mmHg 56%
    10:00 -1°C° 0 mm 0 mps 763 mmHg 55%
    11:00 +1°C° 0 mm 1 mps 763 mmHg 55%
    12:00 +1°C° 0 mm 1 mps 762 mmHg 57%
    13:00 +1°C° 0 mm 1 mps 761 mmHg 59%
    14:00 +1°C° 0 mm 2 mps 761 mmHg 60%
    15:00 -1°C° 0 mm 2 mps 760 mmHg 62%
    16:00 -1°C° 0 mm 2 mps 760 mmHg 64%
    17:00 -2°C° 0 mm 2 mps 759 mmHg 65%
    18:00 -2°C° 0 mm 2 mps 758 mmHg 67%
    19:00 -2°C° 0 mm 3 mps 758 mmHg 69%
    20:00 -2°C° 0 mm 3 mps 757 mmHg 71%
    21:00 -2°C° 0 mm 3 mps 756 mmHg 75%
    22:00 -2°C° 0 mm 3 mps 756 mmHg 79%
    23:00 -4°C° 0 mm 3 mps 755 mmHg 83%

    Day after tomorrow, 18 November, Sunday

    Time Temperature Precipitation Wind Pressure Humidity
    00:00 -2°C° 0 mm 3 mps 754 mmHg 86%
    01:00 -2°C° 0 mm 4 mps 754 mmHg 88%
    02:00 -2°C° 0 mm 4 mps 753 mmHg 91%
    03:00 -1°C° 0 mm 4 mps 752 mmHg 92%
    04:00 -1°C° 0 mm 4 mps 751 mmHg 93%
    05:00 -1°C° 0 mm 4 mps 750 mmHg 94%
    06:00 -1°C° 0.1 mm 4 mps 749 mmHg 95%
    07:00 -1°C° 0.1 mm 4 mps 749 mmHg 95%
    08:00 0°C° 0.1 mm 4 mps 748 mmHg 96%
    09:00 +1°C° 0.1 mm 3 mps 748 mmHg 96%
    10:00 +1°C° 0.1 mm 3 mps 748 mmHg 96%
    11:00 +1°C° 0.1 mm 3 mps 747 mmHg 96%
    12:00 +1°C° 0.2 mm 3 mps 747 mmHg 96%
    13:00 +1°C° 0.2 mm 3 mps 747 mmHg 96%
    14:00 +1°C° 0.2 mm 3 mps 747 mmHg 96%
    15:00 +1°C° 0.4 mm 3 mps 747 mmHg 96%
    16:00 +1°C° 0.4 mm 3 mps 746 mmHg 96%
    17:00 +1°C° 0.4 mm 3 mps 746 mmHg 97%
    18:00 +1°C° 0.2 mm 3 mps 746 mmHg 96%
    19:00 0°C° 0.2 mm 4 mps 746 mmHg 95%
    20:00 0°C° 0.2 mm 4 mps 746 mmHg 94%
    21:00 0°C° 0.2 mm 4 mps 746 mmHg 94%
    22:00 -1°C° 0.2 mm 4 mps 746 mmHg 94%
    23:00 -1°C° 0.2 mm 4 mps 746 mmHg 93%

    19 November, Monday

    Time Temperature Precipitation Wind Pressure Humidity
    00:00 -1°C° 0.1 mm 4 mps 746 mmHg 94%
    01:00 -1°C° 0.1 mm 4 mps 747 mmHg 94%
    02:00 -1°C° 0.1 mm 4 mps 747 mmHg 94%
    03:00 -1°C° 0.1 mm 4 mps 747 mmHg 94%
    04:00 -1°C° 0.1 mm 4 mps 747 mmHg 95%
    05:00 -1°C° 0.1 mm 4 mps 747 mmHg 95%
    06:00 -1°C° 0.1 mm 4 mps 747 mmHg 95%
    07:00 -1°C° 0.1 mm 4 mps 748 mmHg 94%
    08:00 -1°C° 0.1 mm 4 mps 748 mmHg 94%
    09:00 -1°C° 0.2 mm 4 mps 748 mmHg 93%
    10:00 -1°C° 0.2 mm 4 mps 748 mmHg 93%
    11:00 0°C° 0.2 mm 4 mps 749 mmHg 92%
    12:00 0°C° 0.2 mm 4 mps 749 mmHg 93%
    13:00 0°C° 0.2 mm 4 mps 749 mmHg 93%
    14:00 +1°C° 0.2 mm 3 mps 749 mmHg 93%
    15:00 0°C° 0.1 mm 3 mps 749 mmHg 93%
    16:00 -1°C° 0.1 mm 4 mps 750 mmHg 93%
    17:00 -1°C° 0.1 mm 4 mps 750 mmHg 93%
    18:00 0°C° 0.1 mm 3 mps 750 mmHg 93%
    19:00 -1°C° 0.1 mm 3 mps 750 mmHg 93%
    20:00 -1°C° 0.1 mm 3 mps 750 mmHg 93%
    21:00 -1°C° 0.1 mm 3 mps 751 mmHg 93%
    22:00 -1°C° 0.1 mm 3 mps 751 mmHg 93%
    23:00 -1°C° 0.1 mm 3 mps 751 mmHg 92%

    20 November, Tuesday

    Time Temperature Precipitation Wind Pressure Humidity
    00:00 -2°C° 0 mm 3 mps 752 mmHg 92%
    01:00 -4°C° 0 mm 3 mps 752 mmHg 91%
    02:00 -4°C° 0 mm 3 mps 752 mmHg 91%
    03:00 -5°C° 0 mm 3 mps 752 mmHg 90%
    04:00 -5°C° 0 mm 3 mps 752 mmHg 90%
    05:00 -6°C° 0 mm 3 mps 752 mmHg 89%
    06:00 -6°C° 0 mm 3 mps 752 mmHg 89%
    07:00 -6°C° 0 mm 3 mps 752 mmHg 89%
    08:00 -5°C° 0 mm 3 mps 752 mmHg 89%
    09:00 -5°C° 0 mm 3 mps 752 mmHg 89%
    10:00 -4°C° 0 mm 4 mps 752 mmHg 88%
    11:00 -3°C° 0 mm 4 mps 752 mmHg 88%
    12:00 -3°C° 0 mm 4 mps 752 mmHg 88%
    13:00 -3°C° 0 mm 4 mps 751 mmHg 88%
    14:00 -2°C° 0 mm 4 mps 751 mmHg 88%
    15:00 -1°C° 0 mm 3 mps 751 mmHg 89%
    16:00 -2°C° 0 mm 3 mps 751 mmHg 89%
    17:00 -2°C° 0 mm 3 mps 751 mmHg 89%
    18:00 -2°C° 0 mm 3 mps 751 mmHg 89%
    19:00 -2°C° 0 mm 3 mps 751 mmHg 89%
    20:00 -2°C° 0 mm 3 mps 750 mmHg 89%
    21:00 -4°C° 0 mm 3 mps 750 mmHg 89%
    22:00 -3°C° 0 mm 2 mps 750 mmHg 89%
    23:00 -3°C° 0 mm 2 mps 750 mmHg 88%

    21 November, Wednesday

    Time Temperature Precipitation Wind Pressure Humidity
    00:00 -3°C° 0 mm 2 mps 750 mmHg 89%
    01:00 -4°C° 0 mm 2 mps 750 mmHg 91%
    02:00 -4°C° 0 mm 2 mps 750 mmHg 92%
    03:00 -4°C° 0 mm 2 mps 750 mmHg 92%
    04:00 -4°C° 0 mm 2 mps 749 mmHg 93%
    05:00 -4°C° 0 mm 2 mps 749 mmHg 93%
    06:00 -4°C° 0 mm 3 mps 749 mmHg 93%
    07:00 -4°C° 0 mm 3 mps 749 mmHg 93%
    08:00 -3°C° 0 mm 4 mps 749 mmHg 92%
    09:00 -3°C° 0 mm 4 mps 749 mmHg 91%
    10:00 -3°C° 0 mm 4 mps 749 mmHg 89%
    11:00 -2°C° 0 mm 4 mps 749 mmHg 88%
    12:00 -2°C° 0 mm 4 mps 748 mmHg 88%
    13:00 -2°C° 0 mm 4 mps 748 mmHg 87%
    14:00 -2°C° 0 mm 4 mps 748 mmHg 87%
    15:00 -2°C° 0 mm 5 mps 747 mmHg 88%
    16:00 -4°C° 0 mm 5 mps 747 mmHg 89%
    17:00 -4°C° 0 mm 5 mps 747 mmHg 89%
    18:00 -4°C° 0 mm 5 mps 746 mmHg 89%
    19:00 -4°C° 0 mm 5 mps 746 mmHg 88%
    20:00 -4°C° 0 mm 5 mps 746 mmHg 87%
    21:00 -5°C° 0 mm 5 mps 746 mmHg 87%
    22:00 -5°C° 0 mm 5 mps 746 mmHg 87%
    23:00 -5°C° 0 mm 5 mps 746 mmHg 87%
    Show more